This is the latest recevied weather packets stored in our database for station/object N5ZP. If no packets are shown the sender has not sent any weather packets the latest 10 day(s).
| Time | Temp. | Humidity | Pressure | Rain* | Wind** | Luminosity | Snow |
|---|---|---|---|---|---|---|---|
| 1777674995 | 17.78° C | 62% | 1012.8 hPa | 0 mm | - | 123 W/m² | - |
| 1777674692 | 17.78° C | 63% | 1012.9 hPa | 0 mm | - | 146 W/m² | - |
| 1777674388 | 17.78° C | 63% | 1012.7 hPa | 0 mm | - | 139 W/m² | - |
| 1777674085 | 17.78° C | 65% | 1012.9 hPa | 0 mm | - | 136 W/m² | - |
| 1777673782 | 17.78° C | 63% | 1012.7 hPa | 0 mm | - | 140 W/m² | - |
| 1777673479 | 17.78° C | 64% | 1012.8 hPa | 0 mm | - | 143 W/m² | - |
| 1777673177 | 17.78° C | 64% | 1012.7 hPa | 0 mm | - | 165 W/m² | - |
| 1777672873 | 17.78° C | 64% | 1012.5 hPa | 0 mm | - | 167 W/m² | - |
| 1777672570 | 17.78° C | 64% | 1012.7 hPa | 0 mm | - | 168 W/m² | - |
| 1777672265 | 17.78° C | 66% | 1012.6 hPa | 0 mm | - | 150 W/m² | - |
| 1777671960 | 17.78° C | 64% | 1012.6 hPa | 0 mm | - | 148 W/m² | - |
| 1777671656 | 17.78° C | 62% | 1012.6 hPa | 0 mm | - | 160 W/m² | - |
| 1777671353 | 17.78° C | 61% | 1012.7 hPa | 0 mm | - | 164 W/m² | - |
| 1777671049 | 17.78° C | 60% | 1012.8 hPa | 0 mm | - | 164 W/m² | - |
| 1777670746 | 17.78° C | 61% | 1012.9 hPa | 0 mm | - | 186 W/m² | - |
| 1777670443 | 17.78° C | 61% | 1012.9 hPa | 0 mm | - | 184 W/m² | - |
| 1777670139 | 17.78° C | 61% | 1013.1 hPa | 0 mm | - | 176 W/m² | - |
| 1777669838 | 17.78° C | 59% | 1013.1 hPa | 0 mm | - | 159 W/m² | - |
| 1777669533 | 17.78° C | 62% | 1013.3 hPa | 0 mm | - | 150 W/m² | - |
| 1777669230 | 17.22° C | 60% | 1013.3 hPa | 0 mm | - | 148 W/m² | - |
| 1777668927 | 17.22° C | 58% | 1013.4 hPa | 0 mm | - | 163 W/m² | - |
| 1777668625 | 17.22° C | 59% | 1013.5 hPa | 0 mm | - | 169 W/m² | - |
| 1777668321 | 17.22° C | 59% | 1013.5 hPa | 0 mm | - | 167 W/m² | - |
| 1777668017 | 17.22° C | 56% | 1014 hPa | 0 mm | - | 157 W/m² | - |
| 1777667714 | 17.22° C | 59% | 1014.1 hPa | 0 mm | - | 161 W/m² | - |
* Rain latest hour (hover to see other rain measurements)
** Current wind speed in m/s (hover to see current wind gust speed)